Погода в Озёрном

Россия / Республика Коми     65°05′21″N   57°09′48″E
темп.,
°C
ветер,
м/с
пор.,
м/с
влажн.,
%
обл.,
%
осадки,
мм/ч
давл.,
гПа
погр.,
м
16 мая, вс
вс1600:00+5ссв23874 0.0 1016134
03:00+4всв128832 0.0 101694
06:00+8св237480 0.0 1015341
09:00+12в2360100 0.0 1014617
12:00+14юв2355100 0.0 1013898
15:00+14св2366100 0.3 1011454
18:00+12всв477898 0.0 1009364
21:00+10св2582100 1.2 1009223
17 мая, пн
пн1700:00+9св358884 1.1 1008204
03:00+9всв2589100 1.2 1008229
06:00+9св2595100 3.9 1007240
09:00+7ссв4792100 11.6 1008312
12:00+7ссв4888100 5.3 1010450
15:00+8с41184100 5.9 1012622
18:00+9с4968100 0.3 1015816
21:00+7с497060 0.3 1017399
18 мая, вт
вт1800:00+5с3869100 0.0 1020266
03:00+3с36705 0.0 1022242
06:00+6с345774 0.0 1023438
09:00+8ссз23415 0.0 1024684
12:00+12сз222869 0.0 1024933
15:00+14сз11295 0.0 1024941
18:00+14в0134100 0.0 1024833
21:00+11ююв2248100 0.0 102441
19 мая, ср
ср1900:00+9ю2559100 0.0 102486
03:00+8ю276471 0.0 1024127
06:00+12ю3853100 0.0 1022348
09:00+17ююз473892 0.0 1020797
12:00+21юз57335 0.0 10181329
15:00+23юз58335 0.0 10161569
18:00+22юз384312 0.0 1014454
21:00+18ююз3115877 0.0 1013230
20 мая, чт
чт2000:00+18юз4145871 0.0 1012317
03:00+17юз4126436 0.0 1012290
06:00+21зюз4125596 0.0 1011424
09:00+26з58385 0.0 1011898
12:00+29з610305 0.0 10102835
15:00+30з582395 0.0 10103719
18:00+28з492769 0.0 1010822
21:00+22зюз310385 0.0 1010217